Location: ??
(35.7725°N, 139.5015°E)
Time: 02:08:30
(UTC+00:00)

Daily predictions for brighter satellites

Satellite Brightness Start Highest point End
(mag) Time Altitude Azimuth Time Altitude Azimuth Time Altitude Azimuth
DELTA 2 R/B (1) 3.7 09:00:49 10° WSW 09:06:24 80° NNW 09:11:58 10° ENE
Cosmos 2333 Rocket 2.2 09:02:32 10° SSW 09:08:10 74° ESE 09:13:53 10° NNE
Cosmos 2341 Rocket 4.1 09:04:43 10° S 09:10:54 61° E 09:17:03 10° NNE
Cosmos 1500 3.7 09:08:08 10° SSW 09:11:50 63° W 09:15:32 10° N
ARGOS 3.6 09:09:40 10° SE 09:14:40 40° ENE 09:19:42 10° N
NOSS 3-2 (C) 4.1 09:14:41 10° SSE 09:19:08 27° ESE 09:23:57 10° NE
Meteor 2-4 Rocket 3.8 09:14:33 10° N 09:20:28 72° E 09:26:23 10° SSE
Cosmos 2218 Rocket 4.3 09:14:39 10° SSE 09:20:41 46° E 09:26:44 10° NNE
Cosmos 1703 Rocket 3.7 09:16:26 10° N 09:20:42 52° E 09:24:55 10° SSE
Cosmos 1933 Rocket 4.1 09:17:06 10° SSW 09:21:24 65° W 09:25:46 10° N
Cosmos 2219 Rocket 2.2 09:16:27 10° SSW 09:22:02 84° ESE 09:27:40 10° NNE
Okean-O 2.7 09:19:32 10° SSE 09:23:52 58° ENE 09:28:14 10° N
SAR-Lupe-4 3.6 09:21:07 10° NNE 09:24:39 57° E 09:28:09 10° S
Cosmos 1980 4.4 09:26:33 10° SSE 09:31:21 30° ESE 09:36:11 10° NE
CZ-2C R/B 2.7 09:26:52 10° NNE 09:32:10 57° E 09:37:19 10° S
FALCON 9 DEB 3.8 09:29:53 10° NW 09:33:13 53° SW 09:36:32 10° SSE
Cosmos 1689 Rocket 2.2 09:34:21 10° N 09:37:14 71° WNW 09:40:05 10° SSW
Cosmos 1536 3.0 09:34:26 10° SSE 09:38:15 48° E 09:42:06 10° NNE
PSLV R/B 4.4 09:34:43 10° N 09:38:45 63° WNW 09:42:43 10° SSW
COSMOS 2428 2.8 09:33:53 10° SSW 09:39:33 83° WNW 09:45:17 10° NNE
YAOGAN 1 2.7 09:36:42 10° S 09:41:01 81° W 09:45:21 10° NNW
SL-4 R/B 2.4 09:38:35 10° NNW 09:41:48 33° NE 09:43:20 22° E
Okean 1-7 3.0 09:37:41 10° N 09:42:02 90° E 09:46:19 10° S
SAR-Lupe-1 4.4 09:41:36 10° N 09:45:11 69° WNW 09:48:44 10° SSW
Cosmos 1241 Rocket 4.5 09:43:16 10° NNW 09:49:51 76° ENE 09:56:16 10° SSE
ASTEX 1 3.9 09:46:02 10° NNE 09:50:28 34° E 09:54:52 10° SSE
SJ 16-02 2.3 09:47:55 10° N 09:51:43 27° ENE 09:52:45 25° E
Okean 3 3.6 09:48:02 10° N 09:52:14 53° E 09:56:25 10° SSE
HJ-1C 3.4 09:50:37 10° S 09:53:55 77° W 09:57:13 10° NNW
H-2A R/B 2.9 09:49:31 10° S 09:54:52 57° W 10:00:13 10° NNW
CSL-04 Rocket 3.6 09:51:07 10° SSE 09:56:38 76° ENE 10:02:08 10° N
Cosmos 1777 Rocket 3.9 09:51:57 10° NNW 09:57:12 89° ENE 10:02:23 10° SSE
Cosmos 1066 Rocket 4.4 09:52:04 10° N 09:57:46 55° E 10:03:29 10° SSE
Ariane Rocket 4.1 09:57:15 23° ENE 09:57:53 24° ENE 10:01:54 10° NNE
Helios 1A Rocket 2.8 09:54:28 10° SSE 09:58:30 88° E 10:02:32 10° NNW
USA 238 DEB 3.5 09:52:07 10° SSW 09:58:36 84° ESE 10:05:23 10° NNE
USA 234 3.4 09:52:18 10° NE 09:58:37 50° SE 10:04:54 10° SSW
Cosmos 1763 Rocket 4.1 09:53:54 10° SSE 09:58:39 34° E 10:03:26 10° NE
USA 238 3.5 09:52:14 10° SSW 09:58:43 83° ESE 10:05:29 10° NNE
Lacrosse 4 Rocket 3.9 09:58:26 10° WSW 10:01:59 23° NW 10:05:35 10° N
ERS-2 3.8 09:59:44 10° N 10:03:07 36° WNW 10:06:29 10° SW
CSL-04 Debris 4.2 09:59:36 10° SSE 10:05:02 84° WSW 10:10:33 10° NNW
Cosmos 1844 Rocket 4.2 10:00:26 10° NW 10:05:30 37° WSW 10:10:32 10° S
CZ-4 R/B 3.4 10:02:53 10° SSW 10:06:16 29° W 10:09:42 10° NW
Cosmos 1378 3.0 10:04:15 10° N 10:07:56 63° E 10:09:40 29° SSE
NOSS 0 Rocket 3.8 10:02:51 10° SSW 10:09:00 84° ESE 10:15:11 10° NNE
Meteor 1-23 Rocket 4.3 10:05:46 10° N 10:11:17 54° E 10:15:47 16° SSE
Cosmos 468 Rocket 4.1 10:06:16 10° S 10:11:21 49° ESE 10:16:27 10° NNE
Hubble Space Telescope 2.0 10:08:21 10° WSW 10:11:57 29° S 10:12:48 27° SSE
Meteor 2-20 4.5 10:08:48 10° N 10:14:49 55° E 10:20:05 14° SSE
X-37B 2.5 10:20:49 10° SSW 10:22:13 22° SSW 10:22:13 22° SSW
USA 81 4.0 10:19:25 10° SSE 10:24:33 57° E 10:29:43 10° NNE
SeaSat 1 3.0 10:20:42 10° NNE 10:25:33 57° WNW 10:30:22 10° SW
NOSS 3-2 (A) 4.2 10:22:04 10° SW 10:27:20 46° NW 10:33:17 10° NNE
Cosmos 1743 2.7 10:23:57 10° S 10:27:49 82° W 10:31:43 10° N
DMSP B5D2-2 4.4 10:23:44 10° N 10:28:54 65° WNW 10:34:01 10° SSW
Abrixas rocket 4.5 10:27:17 10° NW 10:27:46 14° NNW 10:27:46 14° NNW
OBJECT-B 3.5 10:32:45 11° N 10:32:45 11° N 10:32:57 10° N
Cosmos 2237 Rocket 2.2 10:24:27 10° SSW 10:30:08 86° WNW 10:35:53 10° NNE
Lacrosse 5 2.7 10:28:35 10° SSW 10:31:53 34° SSE 10:31:53 34° SSE
Cosmos 1733 Rocket 3.0 10:29:08 10° S 10:33:27 84° W 10:37:50 10° N
CENTAUR R/B 2.7 10:31:13 10° SW 10:36:47 64° NW 10:43:26 10° NNE
Image 4.4 10:33:50 10° N 10:41:13 - SSW 10:37:34 73° NNW
Cosmos 2278 Rocket 2.1 10:32:59 10° NNW 10:38:38 65° ENE 10:39:18 60° ESE
MetOp-A 4.1 10:35:01 21° S 10:38:45 83° WSW 10:44:08 10° NNW
MOS 1 4.2 10:40:10 58° ESE 10:40:56 64° ENE 10:46:33 10° N
SJ-6B 3.5 10:48:46 52° NNW 10:48:46 52° NNW 10:51:55 10° NNW
DELTA 2 R/B (1) 3.8 10:47:42 10° WNW 10:53:10 58° N 10:53:32 56° NNE
Cosmos 1821 Rocket 4.1 10:48:26 10° SSW 10:54:40 75° W 11:00:50 10° N
Cosmos 1000 Rocket 4.4 11:00:22 10° N 11:06:43 86° W 11:07:24 73° S
NOSS 3-2 (C) 4.5 11:04:28 10° WSW 11:09:38 40° NW 11:15:27 10° NNE
IRS-1A Rocket 4.5 11:11:56 63° SW 11:12:18 65° WSW 11:17:49 10° NNW
SJ 16-02 3.6 11:26:43 10° NW 11:29:48 21° W 11:29:48 21° W
ATLAS 2A CENTAUR R/B 4.4 11:10:10 10° W 11:40:00 54° SSW 11:40:23 53° S
USA 234 4.1 11:39:32 35° N 11:41:30 44° NW 11:47:37 10° WSW
